Terminal Aerodrome Forecast
Issued by NWS

Home | Current Version | Previous Version | Graphics & Text | Print | Product List | Glossary On
Versions: 1 2 3 4 5 6 7 8 9 10 11 12 13
000
FTUS45 KGGW 180500
TAFGDV
TAF
KGDV 180528Z 1806/1906 12011KT P6SM SCT070 OVC100
     FM181200 13013G19KT P6SM SCT120
     FM181830 24009KT P6SM VCSH SCT070 OVC110
     FM190030 31015G25KT P6SM SCT080
      AMD LTD TO CLD VIS AND WIND=

USA.gov is the U.S. government's official web portal to all federal, state and local government web resources and services.